カタログに戻る

STARLINK-2706

運用中通信VLEO
NORAD 48481·PAYLOAD·🇺🇸 United States

打ち上げ May 9, 2021 から Cape Canaveral Space Force Station

Loading…

次のパス (今後24時間)

TLE

最新Source: CelesTrak SupGP

元期: Sep 15, 2026, 01:38 UTC

1 48481C 21040BF  26258.06854167 -.00022578  00000+0 -72582-3 0  2582
2 48481  53.1598  32.1678 0000986  89.4611 338.9473 15.31724010    19

AllMySatでSTARLINK-2706をリアルタイム追跡

Download on the App Store